Date String (YYYY-MM-DD hh:mm:ss) UTC,Instrument flags,Ambient pressure (hPa),Sample flow (lpm),Bypass flow (lpm),Sample temperature (°C),Ambient temperature (°C),ASC tube jacket temperature (°C),LED temperature (°C),Box temperature (°C),Sample RH (%),Span deviation,Mass concentration (μg/m³),Mass concentration (μg/m³),Mass concentration (μg/m³)
DateTimeUTC,F1_M11,P_M11,Q1_M11,Q2_M11,T1_M11,T2_M11,T3_M11,T4_M11,T5_M11,U1_M11,ZSPAN_M11,X0_M11,X2_M11,X1_M11
2022-04-01 19:00:00,,0821.4,5.01,0.00,25.4,24.7,00.0,34.3,27.2,10.3,0000.0,0011.02,0004.69,0004.01
2022-04-01 19:01:00,,0821.4,4.99,0.00,25.4,24.7,00.0,34.3,27.2,10.4,0000.0,0010.21,0004.66,0004.02
2022-04-01 19:02:00,,0821.4,5.01,0.00,25.4,24.7,00.0,34.3,27.2,10.5,0000.0,0009.77,0004.67,0004.02
2022-04-01 19:03:00,,0821.4,5.00,0.00,25.4,24.7,00.0,34.3,27.2,10.8,0000.0,0009.88,0004.70,0004.04
2022-04-01 19:04:00,,0821.4,5.01,0.00,25.4,24.7,00.0,34.3,27.3,10.4,0000.0,0010.23,0004.73,0004.06
2022-04-01 19:05:00,,0821.4,4.98,0.00,25.4,24.7,00.0,34.3,27.3,10.1,0000.0,0009.93,0004.75,0004.09
2022-04-01 19:06:00,,0821.3,5.01,0.00,25.4,24.7,00.0,34.3,27.2,10.4,0000.0,0008.76,0004.73,0004.10
2022-04-01 19:07:00,,0821.3,4.99,0.00,25.4,24.7,00.0,34.3,27.2,10.8,0000.0,0008.67,0004.70,0004.08
2022-04-01 19:08:00,,0821.3,5.00,0.00,25.4,24.7,00.0,34.3,27.3,10.4,0000.0,0008.65,0004.66,0004.05
2022-04-01 19:09:00,,0821.3,5.00,0.00,25.4,24.7,00.0,34.3,27.2,10.4,0000.0,0008.61,0004.63,0004.01
2022-04-01 19:10:00,,0821.3,5.01,0.00,25.4,24.7,00.0,34.3,27.3,10.3,0000.0,0008.63,0004.56,0003.97
2022-04-01 19:11:00,,0821.3,5.01,0.00,25.4,24.8,00.0,34.3,27.3,10.3,0000.0,0008.70,0004.50,0003.94
2022-04-01 19:12:00,,0821.3,4.99,0.00,25.4,24.7,00.0,34.3,27.3,10.4,0000.0,0008.95,0004.46,0003.91
2022-04-01 19:13:00,,0821.3,5.00,0.00,25.4,24.7,00.0,34.3,27.2,10.1,0000.0,0008.91,0004.40,0003.87
2022-04-01 19:14:00,,0821.2,5.00,0.00,25.4,24.7,00.0,34.3,27.2,10.2,0000.0,0008.96,0004.34,0003.81
2022-04-01 19:15:00,,0821.2,5.01,0.00,25.4,24.7,00.0,34.3,27.2,10.4,0000.0,0009.15,0004.33,0003.77
2022-04-01 19:16:00,,0821.2,4.99,0.00,25.4,24.7,00.0,34.3,27.2,10.5,0000.0,0009.14,0004.29,0003.71
2022-04-01 19:17:00,,0821.1,4.99,0.00,25.4,24.7,00.0,34.3,27.2,10.3,0000.0,0008.88,0004.25,0003.67
2022-04-01 19:18:00,,0821.1,5.00,0.00,25.4,24.7,00.0,34.3,27.2,10.0,0000.0,0008.92,0004.24,0003.67
2022-04-01 19:19:00,,0821.2,5.00,0.00,25.4,24.7,00.0,34.3,27.2,10.3,0000.0,0008.88,0004.24,0003.68
2022-04-01 19:20:00,,0821.2,5.01,0.00,25.4,24.7,00.0,34.3,27.3,10.3,0000.0,0008.91,0004.25,0003.69
2022-04-01 19:21:00,,0821.2,5.01,0.00,25.4,24.7,00.0,34.3,27.3,10.0,0000.0,0009.53,0004.28,0003.70
2022-04-01 19:22:00,,0821.1,4.98,0.00,25.4,24.7,00.0,34.3,27.3,10.0,0000.0,0009.85,0004.31,0003.72
2022-04-01 19:23:00,,0821.1,5.00,0.00,25.4,24.8,00.0,34.4,27.3,10.0,0000.0,0010.15,0004.32,0003.72
2022-04-01 19:24:00,,0821.1,5.00,0.00,25.4,24.8,00.0,34.4,27.3,10.1,0000.0,0010.40,0004.37,0003.73
2022-04-01 19:25:00,,0821.1,5.01,0.00,25.5,24.8,00.0,34.4,27.3,10.1,0000.0,0010.33,0004.39,0003.75
2022-04-01 19:26:00,,0821.1,4.98,0.00,25.5,24.9,00.0,34.4,27.4,10.2,0000.0,0009.84,0004.38,0003.75
2022-04-01 19:27:00,,0821.1,5.00,0.00,25.5,24.9,00.0,34.4,27.4,10.2,0000.0,0009.79,0004.39,0003.73
2022-04-01 19:28:00,,0821.1,5.00,0.00,25.5,24.9,00.0,34.4,27.4,09.8,0000.0,0010.10,0004.40,0003.72
2022-04-01 19:29:00,,0821.0,5.00,0.00,25.5,24.9,00.0,34.4,27.4,10.4,0000.0,0010.16,0004.38,0003.71
2022-04-01 19:30:00,,0821.1,5.00,0.00,25.5,24.9,00.0,34.4,27.4,10.1,0000.0,0010.33,0004.35,0003.70
2022-04-01 19:31:00,,0821.1,5.00,0.00,25.5,24.9,00.0,34.4,27.4,10.0,0000.0,0011.06,0004.35,0003.70
2022-04-01 19:32:00,,0821.1,5.00,0.00,25.5,24.9,00.0,34.4,27.4,10.0,0000.0,0010.45,0004.35,0003.71
2022-04-01 19:33:00,,0821.0,4.99,0.00,25.5,24.9,00.0,34.4,27.4,10.7,0000.0,0010.09,0004.38,0003.72
2022-04-01 19:34:00,,0821.1,5.01,0.00,25.6,24.9,00.0,34.5,27.4,10.7,0000.0,0009.58,0004.37,0003.74
2022-04-01 19:35:00,,0821.0,5.01,0.00,25.6,25.0,00.0,34.5,27.5,10.6,0000.0,0009.89,0004.35,0003.74
2022-04-01 19:36:00,,0821.1,5.00,0.00,25.6,25.0,00.0,34.5,27.5,10.0,0000.0,0010.14,0004.36,0003.74
2022-04-01 19:37:00,,0821.1,4.98,0.00,25.6,25.0,00.0,34.5,27.5,09.8,0000.0,0010.08,0004.36,0003.77
2022-04-01 19:38:00,,0821.1,5.00,0.00,25.6,25.0,00.0,34.5,27.5,09.7,0000.0,0010.12,0004.39,0003.83
2022-04-01 19:39:00,,0821.1,5.00,0.00,25.6,25.0,00.0,34.5,27.5,09.8,0000.0,0010.03,0004.46,0003.86
2022-04-01 19:40:00,,0821.1,5.00,0.00,25.6,25.0,00.0,34.5,27.5,09.8,0000.0,0010.24,0004.51,0003.89
2022-04-01 19:41:00,,0821.1,5.01,0.00,25.6,25.0,00.0,34.5,27.5,10.0,0000.0,0010.83,0004.54,0003.92
2022-04-01 19:42:00,,0821.1,5.00,0.00,25.6,25.0,00.0,34.5,27.5,09.8,0000.0,0010.78,0004.59,0003.94
2022-04-01 19:43:00,,0821.1,5.00,0.00,25.6,25.0,00.0,34.5,27.5,09.7,0000.0,0010.95,0004.64,0003.95
2022-04-01 19:44:00,,0821.1,5.00,0.00,25.7,25.1,00.0,34.5,27.6,10.1,0000.0,0010.93,0004.64,0003.95
2022-04-01 19:45:00,,0821.1,4.98,0.00,25.7,25.1,00.0,34.5,27.6,10.7,0000.0,0011.06,0004.64,0003.95
2022-04-01 19:46:00,,0821.1,5.01,0.00,25.7,25.1,00.0,34.6,27.6,10.4,0000.0,0010.92,0004.64,0003.97
2022-04-01 19:47:00,,0821.1,5.01,0.00,25.7,25.1,00.0,34.6,27.6,10.2,0000.0,0011.12,0004.65,0003.98
2022-04-01 19:48:00,,0821.1,4.99,0.00,25.7,25.1,00.0,34.6,27.6,09.7,0000.0,0011.11,0004.66,0003.99
2022-04-01 19:49:00,,0821.1,5.00,0.00,25.7,25.1,00.0,34.6,27.7,09.7,0000.0,0011.74,0004.70,0004.00
2022-04-01 19:50:00,,0821.1,5.01,0.00,25.8,25.2,00.0,34.6,27.7,09.6,0000.0,0012.19,0004.67,0004.01
2022-04-01 19:51:00,,0821.0,5.00,0.00,25.8,25.2,00.0,34.6,27.7,09.7,0000.0,0011.98,0004.64,0004.02
2022-04-01 19:52:00,,0821.0,5.01,0.00,25.8,25.2,00.0,34.6,27.6,09.4,0000.0,0011.22,0004.67,0004.04
2022-04-01 19:53:00,,0821.0,5.00,0.00,25.8,25.2,00.0,34.6,27.6,09.5,0000.0,0010.77,0004.68,0004.05
2022-04-01 19:54:00,,0820.9,5.00,0.00,25.8,25.2,00.0,34.7,27.6,09.6,0000.0,0010.70,0004.67,0004.05
2022-04-01 19:55:00,,0821.0,5.01,0.00,25.8,25.2,00.0,34.7,27.7,09.7,0000.0,0010.59,0004.66,0004.05
2022-04-01 19:56:00,,0820.9,5.00,0.00,25.8,25.2,00.0,34.7,27.7,10.3,0000.0,0010.51,0004.66,0004.04
2022-04-01 19:57:00,,0820.8,5.00,0.00,25.8,25.2,00.0,34.7,27.7,09.7,0000.0,0010.36,0004.68,0004.02
2022-04-01 19:58:00,,0820.8,5.00,0.00,25.8,25.2,00.0,34.7,27.7,09.8,0000.0,0009.88,0004.68,0004.01
2022-04-01 19:59:00,,0820.8,5.00,0.00,25.8,25.2,00.0,34.7,27.7,09.7,0000.0,0009.59,0004.66,0003.99
